Location: Carnoy
(49.9849°N, 2.7558°E)
Time: 07:03:59
(UTC+00:00)

Cosmos 1727 Rocket - Pass Details

Date: 24 January 2020
Orbit: 960 x 997 km, 82.9° (Epoch: 24 February)

Event Time Altitude Azimuth Distance (km) Brightness Sun altitude
Rises 18:53:14 0° 348° (NNW) 3,669 7.1 -22.9°
Reaches altitude 10° 18:55:46 10° 345° (NNW) 2,714 6.5 -23.3°
Maximum altitude 19:01:52 63° 266° (W) 1,073 4.4 -24.3°
Drops below altitude 10° 19:07:55 10° 187° (S) 2,688 6.4 -25.2°
Sets 19:10:25 0° 185° (S) 3,631 7.0 -25.6°
